Location: Proctor
(47.8934°N, 114.3048°W)
Time: 15:55:41
(UTC+00:00)

Courier 1B Rocket - Pass Details

Date: 20 June 2024
Orbit: 920 x 1201 km, 28.2° (Epoch: 16 July)

Event Time Altitude Azimuth Distance (km) Brightness Sun altitude
Rises 11:08:56 0° 216° (SW) 3,747 - -4.6°
Exits shadow 11:10:17 - 209° (SSW) 3,430 7.2 -4.4°
Reaches altitude 10° 11:13:35 10° 187° (S) 2,869 7.0 -4.0°
Maximum altitude 11:16:08 12° 166° (SSE) 2,748 7.1 -3.7°
Drops below altitude 10° 11:18:43 10° 144° (SE) 2,948 7.5 -3.3°
Sets 11:23:40 0° 117° (ESE) 3,977 8.5 -2.7°
